Location: *
(6.0000°S, 32.3997°W)
Time: 16:53:11
(UTC+00:00)

FengYun 1-2 T - Pass Details

Date: 01 April 2020
Orbit: 847 x 880 km, 98.7° (Epoch: 26 May)

Event Time Altitude Azimuth Distance (km) Brightness Sun altitude
Rises 20:24:34 0° 158° (SSE) 3,451 7.1 -3.3°
Reaches altitude 10° 20:27:02 10° 153° (SSE) 2,505 6.4 -3.9°
Maximum altitude 20:32:25 51° 78° (ENE) 1,065 4.4 -5.3°
Drops below altitude 10° 20:37:44 10° 3° (N) 2,471 6.7 -6.6°
Sets 20:40:08 0° 358° (N) 3,399 7.4 -7.2°
